Weather History for Tampa, FL

Change the Weather History Date:

Wednesday, January 9, 2013

  Actual Average Record
Temperature  
Mean Temperature 77 °F 60 °F  
Max Temperature 85 °F 70 °F 85 °F (2013)
Min Temperature 69 °F 51 °F 27 °F (1970)
Degree Days  
Heating Degree Days 0 6  
Month to date heating degree days 9 54  
Since 1 July heating degree days 135 237  
Cooling Degree Days 12 2  
Month to date cooling degree days 31 18  
Year to date cooling degree days 31 18  
Growing Degree Days 26 (Base 50)    
Moisture  
Dew Point 66 °F    
Average Humidity 69    
Maximum Humidity 90    
Minimum Humidity 48    
Precipitation  
Precipitation 0.00 in 0.07 in 3.29 in (1953)
Month to date precipitation 0.46 0.62  
Year to date precipitation 0.46 0.62  
Sea Level Pressure  
Sea Level Pressure 30.23 in    
Wind  
Wind Speed 6 mph (East)    
Max Wind Speed 13 mph    
Max Gust Speed 20 mph    
Visibility 9 miles    
Events      
T = Trace of Precipitation, MM = Missing Value Source: NWS Daily Summary

Daily Weather History Graph

Daily Weather History Graph

Search for Another Location

Airport:

Trip Planner

Search our weather history database for the weather conditions in past years. The results will help you decide how hot, cold, wet, or windy it might be!

Date:

Astronomy

Jan. 09, 2013 Rise Set
Actual Time 7:22 AM EST 5:52 PM EST
Civil Twilight 6:57 AM EST 6:17 PM EST
Nautical Twilight 6:28 AM EST 6:46 PM EST
Astronomical Twilight 5:59 AM EST 7:15 PM EST
Moon 5:00 AM EST (1/9) 3:53 PM EST (1/9)
Length of Visible Light 11h 20m
Length of Day
10h 29m
Waning Crescent, 6% of the Moon is Illuminated
Jan 9
Waning Crescent
Jan 11
New
Jan 18
First Quarter
Jan 26
Full
Feb 3
Last Quarter

Hourly Weather History & Observations

Time (EST) Temp. Heat Index Dew Point Humidity Pressure Visibility Wind Dir Wind Speed Gust Speed Precip Events Conditions
12:53 AM 73.0 °F - 66.0 °F 79% 30.19 in 10.0 mi Variable 3.5 mph - N/A   Overcast
1:53 AM 72.0 °F - 66.0 °F 81% 30.20 in 10.0 mi ENE 4.6 mph - N/A   Overcast
2:53 AM 71.1 °F - 66.9 °F 87% 30.19 in 10.0 mi East 4.6 mph - N/A   Scattered Clouds
3:53 AM 70.0 °F - 66.9 °F 90% 30.19 in 10.0 mi NE 4.6 mph - N/A   Partly Cloudy
4:53 AM 69.1 °F - 66.0 °F 90% 30.19 in 8.0 mi ENE 3.5 mph - N/A   Scattered Clouds
5:25 AM 69.8 °F - 66.2 °F 88% 30.19 in 5.0 mi East 4.6 mph - N/A   Mostly Cloudy
5:53 AM 69.1 °F - 66.9 °F 93% 30.20 in 5.0 mi ENE 3.5 mph - N/A   Mostly Cloudy
6:53 AM 69.1 °F - 66.9 °F 93% 30.22 in 6.0 mi ENE 5.8 mph - N/A   Mostly Cloudy
7:30 AM 69.8 °F - 66.2 °F 88% 30.23 in 7.0 mi East 4.6 mph - N/A   Mostly Cloudy
7:53 AM 71.1 °F - 68.0 °F 90% 30.24 in 8.0 mi East 3.5 mph - N/A   Mostly Cloudy
8:21 AM 71.6 °F - 68.0 °F 88% 30.26 in 9.0 mi East 3.5 mph - N/A   Mostly Cloudy
8:53 AM 73.0 °F - 68.0 °F 84% 30.27 in 10.0 mi ESE 8.1 mph - N/A   Mostly Cloudy
9:53 AM 75.9 °F - 68.0 °F 76% 30.28 in 10.0 mi ESE 9.2 mph 16.1 mph N/A   Mostly Cloudy
10:53 AM 79.0 °F - 68.0 °F 69% 30.29 in 10.0 mi SE 8.1 mph - N/A   Mostly Cloudy
11:53 AM 80.1 °F 82.3 °F 66.9 °F 64% 30.27 in 10.0 mi SE 8.1 mph - N/A   Mostly Cloudy
12:53 PM 82.0 °F 84.1 °F 66.0 °F 58% 30.24 in 10.0 mi SSE 6.9 mph - N/A   Scattered Clouds
1:53 PM 82.9 °F 84.4 °F 64.0 °F 53% 30.22 in 10.0 mi SSE 9.2 mph 16.1 mph N/A   Scattered Clouds
2:53 PM 84.0 °F 85.4 °F 64.0 °F 51% 30.21 in 10.0 mi South 4.6 mph - N/A   Mostly Cloudy
3:53 PM 84.0 °F 84.9 °F 63.0 °F 49% 30.21 in 10.0 mi SSE 6.9 mph - N/A   Mostly Cloudy
4:53 PM 84.0 °F 84.9 °F 63.0 °F 49% 30.21 in 10.0 mi Variable 6.9 mph - N/A   Overcast
5:53 PM 82.0 °F 83.0 °F 62.1 °F 51% 30.22 in 10.0 mi Calm Calm - N/A   Overcast
6:53 PM 80.6 °F 81.8 °F 62.6 °F 54% 30.24 in 10.0 mi East 4.6 mph - N/A   Clear
7:53 PM 79.0 °F - 62.1 °F 56% 30.25 in 10.0 mi East 5.8 mph - N/A   Clear
8:53 PM 77.0 °F - 66.0 °F 69% 30.26 in 10.0 mi ESE 8.1 mph 19.6 mph N/A   Clear
9:53 PM 75.0 °F - 66.9 °F 76% 30.28 in 10.0 mi East 4.6 mph - N/A   Clear
10:53 PM 73.9 °F - 68.0 °F 82% 30.30 in 10.0 mi East 5.8 mph - N/A   Scattered Clouds
11:53 PM 73.0 °F - 68.0 °F 84% 30.30 in 10.0 mi East 4.6 mph - N/A   Partly Cloudy